Weather in Turgenevo

Russia / Republic of Mordovia     54°50′45″N   46°19′20″E
temp.,
°C
wind,
m/s
gust,
m/s
humid.,
%
clouds,
%
prec.,
mm/h
press.,
hPa
HPBL,
m
18 may, tue
tue1800:00+17ene346379 0.0 101658
03:00+16se23696 0.0 101631
06:00+19e24635 0.0 1016113
09:00+24se46515 0.0 1016398
12:00+28se56335 0.0 10151238
15:00+29ese46345 0.0 10151617
18:00+26ese34463 0.0 101356
21:00+20e36505 0.0 101476
19 may, wed
wed1900:00+17ese412725 0.0 1014206
03:00+16ese4147265 0.0 1014298
06:00+17ese5147347 0.0 1014381
09:00+22ese7116228 0.0 1014546
12:00+26ese810494 0.0 10141045
15:00+27ese710521 0.0 10141352
18:00+23ese713590 0.0 1013485
21:00+20ese515600 0.0 1013341
20 may, thu
thu2000:00+19ese617660 0.0 1013462
03:00+18ese616680 0.0 1012496
06:00+18se513740 0.0 1012556
09:00+21se811610 0.0 10121047
12:00+24se9115374 0.1 10111925
15:00+22se7115956 0.9 10101314
18:00+18se697386 3.3 1010315
21:00+16se3589100 6.4 1009143
21 may, fri
fri2100:00+14ssw2492100 2.7 1009176
03:00+13s35935 3.0 1010130
06:00+14ssw49875 0.0 1011436
09:00+17sw687233 0.0 10121149
12:00+18sw687244 1.1 10121173
15:00+18sw6107064 2.3 10131388
18:00+17wsw697334 0.2 1014958
21:00+15wsw6118097 0.2 1016650
22 may, sat
sat2200:00+12wsw499399 0.0 1017278
03:00+11wsw2395100 0.0 101967
06:00+12wnw1186100 0.0 1020110
09:00+16s1171100 0.0 1021647
12:00+14ese1189100 2.4 1021205
15:00+13sse2393100 6.1 1022255
18:00+12e3499100 10.8 1019183
21:00+12ese3599100 26.1 1020161